Time,TemperatureF,DewpointF,PressureIn,WindDirection,WindDirectionDegrees,WindSpeedMPH,WindSpeedGustMPH,Humidity,HourlyPrecipIn,Conditions,Clouds,dailyrainin,SolarRadiationWatts/m^2,SoftwareType,DateUTC
2013-04-21 00:01:00,32.6,21.4,30.24,WSW,243,2.0,3.0,63,0.00,,,0.01,0.00,VWS V14.00,2013-04-21 04:01:00,
2013-04-21 00:06:00,32.4,20.5,30.24,West,271,1.0,2.0,61,0.00,,,0.00,0.00,VWS V14.00,2013-04-21 04:06:00,
2013-04-21 00:11:00,32.4,20.5,30.24,West,272,0.0,3.0,61,0.00,,,0.00,0.00,VWS V14.00,2013-04-21 04:11:00,
2013-04-21 00:16:00,32.3,20.0,30.24,NW,304,2.0,7.0,60,0.00,,,0.00,0.00,VWS V14.00,2013-04-21 04:16:00,
2013-04-21 00:21:00,32.3,20.0,30.24,NNW,331,7.0,7.0,60,0.00,,,0.00,0.00,VWS V14.00,2013-04-21 04:21:00,
2013-04-21 00:26:00,32.2,20.3,30.25,NW,325,10.0,15.0,61,0.00,,,0.00,0.00,VWS V14.00,2013-04-21 04:26:00,
2013-04-21 00:31:00,32.0,19.7,30.25,NW,321,9.0,11.0,60,0.00,,,0.00,0.00,VWS V14.00,2013-04-21 04:31:00,
2013-04-21 00:36:00,31.9,19.6,30.25,NNW,336,15.0,15.0,60,0.00,,,0.00,0.00,VWS V14.00,2013-04-21 04:36:00,
2013-04-21 00:41:00,31.8,19.1,30.26,NW,318,17.0,19.0,59,0.00,,,0.00,0.00,VWS V14.00,2013-04-21 04:41:00,
2013-04-21 00:46:00,31.7,19.0,30.26,NW,325,10.0,12.0,59,0.00,,,0.00,0.00,VWS V14.00,2013-04-21 04:46:00,
2013-04-21 00:51:00,31.6,18.5,30.25,NNE,14,12.0,14.0,58,0.00,,,0.00,0.00,VWS V14.00,2013-04-21 04:51:00,
2013-04-21 00:56:00,31.5,18.0,30.25,NNW,333,16.0,16.0,57,0.00,,,0.00,0.00,VWS V14.00,2013-04-21 04:56:00,
2013-04-21 01:01:00,31.4,17.5,30.25,NW,322,13.0,22.0,56,0.00,,,0.00,0.00,VWS V14.00,2013-04-21 05:01:00,
2013-04-21 01:06:00,31.3,17.4,30.26,WNW,302,9.0,17.0,56,0.00,,,0.00,0.00,VWS V14.00,2013-04-21 05:06:00,
2013-04-21 01:11:00,31.3,17.4,30.26,NW,318,12.0,12.0,56,0.00,,,0.00,0.00,VWS V14.00,2013-04-21 05:11:00,
2013-04-21 01:16:00,31.3,17.4,30.26,NW,309,5.0,12.0,56,0.00,,,0.00,0.00,VWS V14.00,2013-04-21 05:16:00,
2013-04-21 01:21:00,31.2,17.3,30.27,NW,305,1.0,11.0,56,0.00,,,0.00,0.00,VWS V14.00,2013-04-21 05:21:00,
2013-04-21 01:26:00,31.3,17.4,30.27,NW,323,6.0,8.0,56,0.00,,,0.00,0.00,VWS V14.00,2013-04-21 05:26:00,
2013-04-21 01:31:00,31.3,17.9,30.27,NNW,329,11.0,11.0,57,0.00,,,0.00,0.00,VWS V14.00,2013-04-21 05:31:00,
2013-04-21 01:36:00,31.4,17.9,30.27,WNW,302,8.0,13.0,57,0.00,,,0.00,0.00,VWS V14.00,2013-04-21 05:36:00,
2013-04-21 01:42:00,31.4,18.4,30.28,NW,305,6.0,12.0,58,0.00,,,0.00,0.00,VWS V14.00,2013-04-21 05:42:00,
2013-04-21 01:47:00,31.4,18.4,30.28,NW,314,6.0,8.0,58,0.00,,,0.00,0.00,VWS V14.00,2013-04-21 05:47:00,
2013-04-21 01:52:00,31.3,18.2,30.28,NW,315,6.0,10.0,58,0.00,,,0.00,0.00,VWS V14.00,2013-04-21 05:52:00,
2013-04-21 01:57:00,31.3,18.2,30.29,NW,316,1.0,5.0,58,0.00,,,0.00,0.00,VWS V14.00,2013-04-21 05:57:00,
2013-04-21 02:01:00,31.2,18.2,30.29,NW,314,5.0,7.0,58,0.00,,,0.00,0.00,VWS V14.00,2013-04-21 06:01:00,
2013-04-21 02:06:00,31.1,18.1,30.29,NW,314,11.0,13.0,58,0.00,,,0.00,0.00,VWS V14.00,2013-04-21 06:06:00,
2013-04-21 02:11:00,31.1,18.1,30.30,WNW,298,2.0,12.0,58,0.00,,,0.00,0.00,VWS V14.00,2013-04-21 06:11:00,
2013-04-21 02:16:00,31.0,18.0,30.30,NNW,340,10.0,11.0,58,0.00,,,0.00,0.00,VWS V14.00,2013-04-21 06:16:00,
2013-04-21 02:21:00,31.0,18.0,30.30,NNW,329,6.0,7.0,58,0.00,,,0.00,0.00,VWS V14.00,2013-04-21 06:21:00,
2013-04-21 02:26:00,30.9,17.9,30.30,NNW,328,12.0,14.0,58,0.00,,,0.00,0.00,VWS V14.00,2013-04-21 06:26:00,
2013-04-21 02:31:00,30.8,17.8,30.31,NW,322,11.0,13.0,58,0.00,,,0.00,0.00,VWS V14.00,2013-04-21 06:31:00,
2013-04-21 02:36:00,30.9,18.3,30.31,NW,315,10.0,10.0,59,0.00,,,0.00,0.00,VWS V14.00,2013-04-21 06:36:00,
2013-04-21 02:41:00,30.8,18.2,30.31,NNW,333,10.0,10.0,59,0.00,,,0.00,0.00,VWS V14.00,2013-04-21 06:41:00,
2013-04-21 02:46:00,30.8,18.2,30.31,West,270,4.0,6.0,59,0.00,,,0.00,0.00,VWS V14.00,2013-04-21 06:46:00,
2013-04-21 02:51:00,30.8,18.2,30.31,NNW,337,5.0,6.0,59,0.00,,,0.00,0.00,VWS V14.00,2013-04-21 06:51:00,
2013-04-21 02:56:00,30.7,18.5,30.31,North,351,8.0,9.0,60,0.00,,,0.00,0.00,VWS V14.00,2013-04-21 06:56:00,
2013-04-21 03:01:00,30.6,18.4,30.32,WNW,302,3.0,9.0,60,0.00,,,0.00,0.00,VWS V14.00,2013-04-21 07:01:00,
2013-04-21 03:06:00,30.6,18.8,30.32,NNW,332,7.0,9.0,61,0.00,,,0.00,0.00,VWS V14.00,2013-04-21 07:06:00,
2013-04-21 03:11:00,30.5,19.0,30.32,NNW,346,0.0,6.0,62,0.00,,,0.00,0.00,VWS V14.00,2013-04-21 07:11:00,
2013-04-21 03:16:00,30.4,19.0,30.33,NNW,335,5.0,10.0,62,0.00,,,0.00,0.00,VWS V14.00,2013-04-21 07:16:00,
2013-04-21 03:21:00,30.3,19.2,30.33,NW,317,9.0,10.0,63,0.00,,,0.00,0.00,VWS V14.00,2013-04-21 07:21:00,
2013-04-21 03:26:00,30.1,19.0,30.33,NW,308,6.0,11.0,63,0.00,,,0.00,0.00,VWS V14.00,2013-04-21 07:26:00,
2013-04-21 03:31:00,29.9,18.5,30.33,NW,320,5.0,9.0,62,0.00,,,0.00,0.00,VWS V14.00,2013-04-21 07:31:00,
2013-04-21 03:36:00,29.7,18.3,30.34,NNW,336,10.0,10.0,62,0.00,,,0.00,0.00,VWS V14.00,2013-04-21 07:36:00,
2013-04-21 03:41:00,29.5,18.1,30.34,NW,322,10.0,10.0,62,0.00,,,0.00,0.00,VWS V14.00,2013-04-21 07:41:00,
2013-04-21 03:46:00,29.2,17.4,30.34,NNW,328,8.0,17.0,61,0.00,,,0.00,0.00,VWS V14.00,2013-04-21 07:46:00,
2013-04-21 03:51:00,28.9,17.2,30.34,WNW,300,13.0,14.0,61,0.00,,,0.00,0.00,VWS V14.00,2013-04-21 07:51:00,
2013-04-21 03:56:00,28.7,17.0,30.35,NNW,335,17.0,17.0,61,0.00,,,0.00,0.00,VWS V14.00,2013-04-21 07:56:00,
2013-04-21 04:01:00,28.6,16.9,30.35,NW,313,9.0,12.0,61,0.00,,,0.00,0.00,VWS V14.00,2013-04-21 08:01:00,
2013-04-21 04:06:00,28.4,16.7,30.35,NW,325,12.0,21.0,61,0.00,,,0.00,0.00,VWS V14.00,2013-04-21 08:06:00,
2013-04-21 04:11:00,28.4,16.7,30.35,NNW,329,18.0,22.0,61,0.00,,,0.00,0.00,VWS V14.00,2013-04-21 08:11:00,
2013-04-21 04:16:00,28.3,16.6,30.36,NNW,334,7.0,17.0,61,0.00,,,0.00,0.00,VWS V14.00,2013-04-21 08:16:00,
2013-04-21 04:21:00,28.3,16.2,30.36,NW,325,13.0,18.0,60,0.00,,,0.00,0.00,VWS V14.00,2013-04-21 08:21:00,
2013-04-21 04:26:00,28.2,16.1,30.36,NW,314,11.0,20.0,60,0.00,,,0.00,0.00,VWS V14.00,2013-04-21 08:26:00,
2013-04-21 04:31:00,28.2,16.1,30.37,NW,315,5.0,10.0,60,0.00,,,0.00,0.00,VWS V14.00,2013-04-21 08:31:00,
2013-04-21 04:36:00,28.1,16.0,30.37,WNW,302,3.0,8.0,60,0.00,,,0.00,0.00,VWS V14.00,2013-04-21 08:36:00,
2013-04-21 04:41:00,28.0,15.9,30.37,WNW,300,8.0,11.0,60,0.00,,,0.00,0.00,VWS V14.00,2013-04-21 08:41:00,
2013-04-21 04:46:00,27.9,15.4,30.38,NW,323,7.0,13.0,59,0.00,,,0.00,0.00,VWS V14.00,2013-04-21 08:46:00,
2013-04-21 04:51:00,27.8,15.4,30.38,NNW,332,1.0,4.0,59,0.00,,,0.00,0.00,VWS V14.00,2013-04-21 08:51:00,
2013-04-21 04:56:00,27.7,15.3,30.39,NNW,329,5.0,6.0,59,0.00,,,0.00,0.00,VWS V14.00,2013-04-21 08:56:00,
2013-04-21 05:01:00,27.6,15.2,30.39,NW,317,4.0,5.0,59,0.00,,,0.00,0.00,VWS V14.00,2013-04-21 09:01:00,
2013-04-21 05:06:00,27.5,15.4,30.40,NW,312,0.0,4.0,60,0.00,,,0.00,0.00,VWS V14.00,2013-04-21 09:06:00,
2013-04-21 05:11:00,27.4,15.4,30.40,North,360,2.0,4.0,60,0.00,,,0.00,0.00,VWS V14.00,2013-04-21 09:11:00,
2013-04-21 05:16:00,27.4,15.4,30.40,NNW,340,0.0,0.0,60,0.00,,,0.00,0.00,VWS V14.00,2013-04-21 09:16:00,
2013-04-21 05:21:00,27.3,15.3,30.41,NNW,340,0.0,0.0,60,0.00,,,0.00,0.00,VWS V14.00,2013-04-21 09:21:00,
2013-04-21 05:26:00,27.2,15.2,30.41,NNW,340,0.0,0.0,60,0.00,,,0.00,0.00,VWS V14.00,2013-04-21 09:26:00,
2013-04-21 05:31:00,27.1,15.1,30.41,NNW,340,0.0,0.0,60,0.00,,,0.00,0.00,VWS V14.00,2013-04-21 09:31:00,
2013-04-21 05:36:00,27.0,15.0,30.41,NNW,340,0.0,0.0,60,0.00,,,0.00,0.00,VWS V14.00,2013-04-21 09:36:00,
2013-04-21 05:41:00,26.9,15.3,30.42,NNW,340,0.0,0.0,61,0.00,,,0.00,0.00,VWS V14.00,2013-04-21 09:41:00,
2013-04-21 05:46:00,26.7,15.4,30.42,NNW,340,0.0,0.0,62,0.00,,,0.00,0.00,VWS V14.00,2013-04-21 09:46:00,
2013-04-21 05:51:00,26.6,15.4,30.42,NNW,340,1.0,1.0,62,0.00,,,0.00,0.00,VWS V14.00,2013-04-21 09:51:00,
2013-04-21 05:56:00,26.3,15.1,30.43,NNW,340,0.0,0.0,62,0.00,,,0.00,0.00,VWS V14.00,2013-04-21 09:56:00,
2013-04-21 06:01:00,26.1,15.2,30.43,NNW,340,0.0,0.0,63,0.00,,,0.00,5.00,VWS V14.00,2013-04-21 10:01:00,
2013-04-21 06:06:00,26.0,15.1,30.43,NNW,340,0.0,0.0,63,0.00,,,0.00,9.00,VWS V14.00,2013-04-21 10:06:00,
2013-04-21 06:11:00,25.8,15.0,30.44,NNW,340,0.0,1.0,63,0.00,,,0.00,11.00,VWS V14.00,2013-04-21 10:11:00,
2013-04-21 06:16:00,25.7,15.2,30.44,NNW,340,0.0,3.0,64,0.00,,,0.00,14.00,VWS V14.00,2013-04-21 10:16:00,
2013-04-21 06:21:00,25.6,15.1,30.44,NNW,340,0.0,0.0,64,0.00,,,0.00,18.00,VWS V14.00,2013-04-21 10:21:00,
2013-04-21 06:26:00,25.5,15.0,30.45,NNW,340,0.0,0.0,64,0.00,,,0.00,21.00,VWS V14.00,2013-04-21 10:26:00,
2013-04-21 06:31:00,25.5,15.0,30.45,NNW,340,1.0,2.0,64,0.00,,,0.00,25.00,VWS V14.00,2013-04-21 10:31:00,
2013-04-21 06:36:00,25.6,15.5,30.45,NNW,340,0.0,0.0,65,0.00,,,0.00,32.00,VWS V14.00,2013-04-21 10:36:00,
2013-04-21 06:41:00,25.6,15.5,30.46,NNW,340,0.0,0.0,65,0.00,,,0.00,35.00,VWS V14.00,2013-04-21 10:41:00,
2013-04-21 06:46:00,25.6,15.5,30.46,NNW,340,0.0,0.0,65,0.00,,,0.00,35.00,VWS V14.00,2013-04-21 10:46:00,
2013-04-21 06:51:00,25.7,15.9,30.46,NNW,340,0.0,0.0,66,0.00,,,0.00,49.00,VWS V14.00,2013-04-21 10:51:00,
2013-04-21 06:56:00,25.8,15.3,30.47,NNW,340,0.0,0.0,64,0.00,,,0.00,44.00,VWS V14.00,2013-04-21 10:56:00,
2013-04-21 07:01:00,26.0,15.5,30.47,NNW,340,0.0,0.0,64,0.00,,,0.00,49.00,VWS V14.00,2013-04-21 11:01:00,
2013-04-21 07:06:00,26.3,15.8,30.48,NNW,340,0.0,0.0,64,0.00,,,0.00,42.00,VWS V14.00,2013-04-21 11:06:00,
2013-04-21 07:11:00,26.6,15.7,30.48,NNW,340,0.0,0.0,63,0.00,,,0.00,44.00,VWS V14.00,2013-04-21 11:11:00,
2013-04-21 07:16:00,26.9,16.0,30.48,NNW,340,0.0,0.0,63,0.00,,,0.00,60.00,VWS V14.00,2013-04-21 11:16:00,
2013-04-21 07:21:00,27.3,15.6,30.49,NNW,340,1.0,1.0,61,0.00,,,0.00,47.00,VWS V14.00,2013-04-21 11:21:00,
2013-04-21 07:26:00,27.7,16.0,30.49,NNW,340,2.0,3.0,61,0.00,,,0.00,69.00,VWS V14.00,2013-04-21 11:26:00,
2013-04-21 07:31:00,27.9,16.2,30.50,NNW,340,0.0,0.0,61,0.00,,,0.00,47.00,VWS V14.00,2013-04-21 11:31:00,
2013-04-21 07:36:00,28.2,16.1,30.50,NNW,340,0.0,0.0,60,0.00,,,0.00,58.00,VWS V14.00,2013-04-21 11:36:00,
2013-04-21 07:41:00,28.4,15.9,30.50,NNW,340,0.0,2.0,59,0.00,,,0.00,109.00,VWS V14.00,2013-04-21 11:41:00,
2013-04-21 07:46:00,28.7,16.2,30.50,NE,38,0.0,3.0,59,0.00,,,0.00,65.00,VWS V14.00,2013-04-21 11:46:00,
2013-04-21 07:51:00,29.1,16.2,30.50,NNW,344,5.0,6.0,58,0.00,,,0.00,91.00,VWS V14.00,2013-04-21 11:51:00,
2013-04-21 07:56:00,29.5,17.0,30.51,NNW,341,5.0,9.0,59,0.00,,,0.00,62.00,VWS V14.00,2013-04-21 11:56:00,
2013-04-21 08:01:00,29.9,16.9,30.51,NW,319,4.0,7.0,58,0.00,,,0.00,135.00,VWS V14.00,2013-04-21 12:01:00,
2013-04-21 08:06:00,30.3,16.5,30.51,NNW,348,3.0,4.0,56,0.00,,,0.00,139.00,VWS V14.00,2013-04-21 12:06:00,
2013-04-21 08:11:00,30.6,16.8,30.51,NNW,346,2.0,3.0,56,0.00,,,0.00,127.00,VWS V14.00,2013-04-21 12:11:00,
2013-04-21 08:16:00,30.9,16.2,30.52,NE,44,7.0,7.0,54,0.00,,,0.00,230.00,VWS V14.00,2013-04-21 12:16:00,
2013-04-21 08:21:00,31.2,17.3,30.52,NNE,22,5.0,8.0,56,0.00,,,0.00,364.00,VWS V14.00,2013-04-21 12:21:00,
2013-04-21 08:26:00,31.6,17.3,30.52,North,349,3.0,6.0,55,0.00,,,0.00,403.00,VWS V14.00,2013-04-21 12:26:00,
2013-04-21 08:31:00,32.0,17.2,30.53,NNE,32,4.0,8.0,54,0.00,,,0.00,418.00,VWS V14.00,2013-04-21 12:31:00,
2013-04-21 08:36:00,32.3,17.1,30.53,North,355,4.0,7.0,53,0.00,,,0.00,436.00,VWS V14.00,2013-04-21 12:36:00,
2013-04-21 08:41:00,32.6,17.4,30.54,NNW,332,4.0,6.0,53,0.00,,,0.00,452.00,VWS V14.00,2013-04-21 12:41:00,
2013-04-21 08:46:00,32.9,17.2,30.54,North,5,7.0,9.0,52,0.00,,,0.00,471.00,VWS V14.00,2013-04-21 12:46:00,
2013-04-21 08:51:00,33.4,18.1,30.54,North,9,2.0,8.0,53,0.00,,,0.00,490.00,VWS V14.00,2013-04-21 12:51:00,
2013-04-21 08:56:00,33.9,17.7,30.54,NNW,348,0.0,7.0,51,0.00,,,0.00,504.00,VWS V14.00,2013-04-21 12:56:00,
2013-04-21 09:01:00,34.4,18.6,30.54,North,5,4.0,10.0,52,0.00,,,0.00,520.00,VWS V14.00,2013-04-21 13:01:00,
2013-04-21 09:06:00,34.6,18.3,30.55,NE,44,3.0,4.0,51,0.00,,,0.00,536.00,VWS V14.00,2013-04-21 13:06:00,
2013-04-21 09:11:00,34.8,17.1,30.55,ENE,57,3.0,6.0,48,0.00,,,0.00,550.00,VWS V14.00,2013-04-21 13:11:00,
2013-04-21 09:16:00,34.7,17.5,30.55,North,355,6.0,11.0,49,0.00,,,0.00,564.00,VWS V14.00,2013-04-21 13:16:00,
2013-04-21 09:21:00,34.8,17.1,30.55,North,9,0.0,1.0,48,0.00,,,0.00,577.00,VWS V14.00,2013-04-21 13:21:00,
2013-04-21 09:26:00,35.3,19.9,30.55,SE,144,0.0,1.0,53,0.00,,,0.00,591.00,VWS V14.00,2013-04-21 13:26:00,
2013-04-21 09:31:00,35.7,20.7,30.55,ENE,67,3.0,5.0,54,0.00,,,0.00,608.00,VWS V14.00,2013-04-21 13:31:00,
2013-04-21 09:36:00,36.1,19.7,30.56,SE,127,2.0,5.0,51,0.00,,,0.00,621.00,VWS V14.00,2013-04-21 13:36:00,
2013-04-21 09:41:00,36.1,20.6,30.56,ESE,123,0.0,2.0,53,0.00,,,0.00,638.00,VWS V14.00,2013-04-21 13:41:00,
2013-04-21 09:46:00,36.0,20.5,30.56,SSE,159,9.0,12.0,53,0.00,,,0.00,654.00,VWS V14.00,2013-04-21 13:46:00,
2013-04-21 09:51:00,35.8,19.0,30.56,ENE,64,8.0,11.0,50,0.00,,,0.00,661.00,VWS V14.00,2013-04-21 13:51:00,
2013-04-21 09:56:00,35.5,19.2,30.56,ESE,103,5.0,7.0,51,0.00,,,0.00,675.00,VWS V14.00,2013-04-21 13:56:00,
2013-04-21 10:01:00,35.4,19.5,30.56,ESE,110,8.0,8.0,52,0.00,,,0.00,689.00,VWS V14.00,2013-04-21 14:01:00,
2013-04-21 10:06:00,35.5,19.6,30.56,SE,145,1.0,7.0,52,0.00,,,0.00,701.00,VWS V14.00,2013-04-21 14:06:00,
2013-04-21 10:11:00,35.7,19.8,30.57,East,101,7.0,8.0,52,0.00,,,0.00,715.00,VWS V14.00,2013-04-21 14:11:00,
2013-04-21 10:16:00,36.0,20.1,30.57,NE,39,6.0,7.0,52,0.00,,,0.00,728.00,VWS V14.00,2013-04-21 14:16:00,
2013-04-21 10:21:00,35.9,20.0,30.57,ESE,104,2.0,7.0,52,0.00,,,0.00,738.00,VWS V14.00,2013-04-21 14:21:00,
2013-04-21 10:26:00,36.0,20.1,30.57,South,182,4.0,12.0,52,0.00,,,0.00,751.00,VWS V14.00,2013-04-21 14:26:00,
2013-04-21 10:31:00,36.0,20.5,30.57,East,98,0.0,9.0,53,0.00,,,0.00,758.00,VWS V14.00,2013-04-21 14:31:00,
2013-04-21 10:36:00,36.1,20.6,30.57,SSE,150,9.0,11.0,53,0.00,,,0.00,773.00,VWS V14.00,2013-04-21 14:36:00,
2013-04-21 10:41:00,36.2,20.7,30.57,SSE,147,0.0,7.0,53,0.00,,,0.00,782.00,VWS V14.00,2013-04-21 14:41:00,
2013-04-21 10:46:00,36.5,21.0,30.57,SSE,148,3.0,9.0,53,0.00,,,0.00,795.00,VWS V14.00,2013-04-21 14:46:00,
2013-04-21 10:51:00,36.6,20.2,30.57,SSE,156,7.0,8.0,51,0.00,,,0.00,805.00,VWS V14.00,2013-04-21 14:51:00,
2013-04-21 10:56:00,36.9,20.9,30.57,SSE,159,3.0,11.0,52,0.00,,,0.00,814.00,VWS V14.00,2013-04-21 14:56:00,
2013-04-21 11:01:00,37.2,21.2,30.57,East,94,2.0,3.0,52,0.00,,,0.00,821.00,VWS V14.00,2013-04-21 15:01:00,
2013-04-21 11:07:00,37.4,21.4,30.57,SE,136,0.0,7.0,52,0.00,,,0.00,833.00,VWS V14.00,2013-04-21 15:07:00,
2013-04-21 11:11:00,37.4,20.0,30.57,NE,46,4.0,7.0,49,0.00,,,0.00,838.00,VWS V14.00,2013-04-21 15:11:00,
2013-04-21 11:17:00,37.5,21.0,30.57,SE,144,0.0,8.0,51,0.00,,,0.00,851.00,VWS V14.00,2013-04-21 15:17:00,
2013-04-21 11:22:00,37.7,20.8,30.57,SE,140,0.0,5.0,50,0.00,,,0.00,853.00,VWS V14.00,2013-04-21 15:22:00,
2013-04-21 11:27:00,37.8,21.8,30.58,ESE,103,1.0,6.0,52,0.00,,,0.00,865.00,VWS V14.00,2013-04-21 15:27:00,
2013-04-21 11:32:00,38.0,21.5,30.58,ENE,69,2.0,2.0,51,0.00,,,0.00,868.00,VWS V14.00,2013-04-21 15:32:00,
2013-04-21 11:37:00,38.2,21.2,30.58,East,99,2.0,4.0,50,0.00,,,0.00,879.00,VWS V14.00,2013-04-21 15:37:00,
2013-04-21 11:42:00,38.5,21.0,30.58,East,101,0.0,5.0,49,0.00,,,0.00,882.00,VWS V14.00,2013-04-21 15:42:00,
2013-04-21 11:47:00,38.6,21.1,30.58,East,90,1.0,6.0,49,0.00,,,0.00,891.00,VWS V14.00,2013-04-21 15:47:00,
2013-04-21 11:52:00,38.7,22.1,30.58,North,10,5.0,7.0,51,0.00,,,0.00,896.00,VWS V14.00,2013-04-21 15:52:00,
2013-04-21 11:57:00,38.8,22.7,30.58,NE,55,4.0,9.0,52,0.00,,,0.00,902.00,VWS V14.00,2013-04-21 15:57:00,
2013-04-21 12:02:00,38.6,21.1,30.58,NE,51,1.0,6.0,49,0.00,,,0.00,907.00,VWS V14.00,2013-04-21 16:02:00,
2013-04-21 12:07:00,38.9,21.9,30.58,ENE,60,3.0,10.0,50,0.00,,,0.00,914.00,VWS V14.00,2013-04-21 16:07:00,
2013-04-21 12:12:00,38.9,21.4,30.58,East,91,3.0,13.0,49,0.00,,,0.00,919.00,VWS V14.00,2013-04-21 16:12:00,
2013-04-21 12:17:00,38.7,22.1,30.58,SE,146,7.0,9.0,51,0.00,,,0.00,919.00,VWS V14.00,2013-04-21 16:17:00,
2013-04-21 12:22:00,38.4,21.4,30.58,SSE,153,0.0,2.0,50,0.00,,,0.00,923.00,VWS V14.00,2013-04-21 16:22:00,
2013-04-21 12:27:00,38.7,23.5,30.58,East,94,10.0,10.0,54,0.00,,,0.00,926.00,VWS V14.00,2013-04-21 16:27:00,
2013-04-21 12:32:00,38.8,22.7,30.58,SSE,152,5.0,8.0,52,0.00,,,0.00,930.00,VWS V14.00,2013-04-21 16:32:00,
2013-04-21 12:37:00,38.9,20.9,30.58,East,94,7.0,10.0,48,0.00,,,0.00,932.00,VWS V14.00,2013-04-21 16:37:00,
2013-04-21 12:42:00,38.8,21.8,30.58,SE,128,5.0,9.0,50,0.00,,,0.00,933.00,VWS V14.00,2013-04-21 16:42:00,
2013-04-21 12:47:00,38.9,21.4,30.58,SE,136,0.0,4.0,49,0.00,,,0.00,933.00,VWS V14.00,2013-04-21 16:47:00,
2013-04-21 12:52:00,38.9,21.9,30.59,East,90,7.0,7.0,50,0.00,,,0.00,933.00,VWS V14.00,2013-04-21 16:52:00,
2013-04-21 12:57:00,39.1,22.5,30.58,SSE,158,0.0,6.0,51,0.00,,,0.00,933.00,VWS V14.00,2013-04-21 16:57:00,
2013-04-21 13:02:00,39.6,21.0,30.59,ENE,62,3.0,7.0,47,0.00,,,0.00,937.00,VWS V14.00,2013-04-21 17:02:00,
2013-04-21 13:07:00,39.8,22.2,30.59,NE,54,3.0,5.0,49,0.00,,,0.00,933.00,VWS V14.00,2013-04-21 17:07:00,
2013-04-21 13:12:00,40.1,23.0,30.58,South,169,7.0,7.0,50,0.00,,,0.00,933.00,VWS V14.00,2013-04-21 17:12:00,
2013-04-21 13:17:00,40.9,22.7,30.58,East,99,6.0,8.0,48,0.00,,,0.00,933.00,VWS V14.00,2013-04-21 17:17:00,
2013-04-21 13:22:00,40.7,21.5,30.59,ESE,121,0.0,7.0,46,0.00,,,0.00,932.00,VWS V14.00,2013-04-21 17:22:00,
2013-04-21 13:27:00,40.5,22.9,30.59,NE,51,6.0,8.0,49,0.00,,,0.00,928.00,VWS V14.00,2013-04-21 17:27:00,
2013-04-21 13:32:00,40.5,22.9,30.59,SE,131,3.0,7.0,49,0.00,,,0.00,926.00,VWS V14.00,2013-04-21 17:32:00,
2013-04-21 13:37:00,40.4,23.7,30.58,SE,138,10.0,10.0,51,0.00,,,0.00,919.00,VWS V14.00,2013-04-21 17:37:00,
2013-04-21 13:42:00,40.4,21.8,30.58,SE,126,4.0,10.0,47,0.00,,,0.00,921.00,VWS V14.00,2013-04-21 17:42:00,
2013-04-21 13:47:00,40.5,22.9,30.59,East,92,5.0,12.0,49,0.00,,,0.00,916.00,VWS V14.00,2013-04-21 17:47:00,
2013-04-21 13:52:00,40.8,22.1,30.58,ESE,111,3.0,4.0,47,0.00,,,0.00,912.00,VWS V14.00,2013-04-21 17:52:00,
2013-04-21 13:57:00,41.0,22.3,30.58,East,88,7.0,7.0,47,0.00,,,0.00,909.00,VWS V14.00,2013-04-21 17:57:00,
2013-04-21 14:02:00,41.0,23.3,30.58,SE,146,6.0,14.0,49,0.00,,,0.00,904.00,VWS V14.00,2013-04-21 18:02:00,
2013-04-21 14:07:00,41.6,23.4,30.59,East,92,3.0,9.0,48,0.00,,,0.00,900.00,VWS V14.00,2013-04-21 18:07:00,
2013-04-21 14:12:00,41.8,23.1,30.58,SE,129,5.0,8.0,47,0.00,,,0.00,896.00,VWS V14.00,2013-04-21 18:12:00,
2013-04-21 14:17:00,41.6,21.9,30.59,East,95,7.0,13.0,45,0.00,,,0.00,888.00,VWS V14.00,2013-04-21 18:17:00,
2013-04-21 14:22:00,41.5,22.3,30.58,SE,134,3.0,8.0,46,0.00,,,0.00,886.00,VWS V14.00,2013-04-21 18:22:00,
2013-04-21 14:27:00,41.5,22.3,30.58,South,186,2.0,11.0,46,0.00,,,0.00,877.00,VWS V14.00,2013-04-21 18:27:00,
2013-04-21 14:32:00,41.4,22.7,30.58,SSE,154,1.0,9.0,47,0.00,,,0.00,870.00,VWS V14.00,2013-04-21 18:32:00,
2013-04-21 14:37:00,41.4,21.1,30.58,SSE,153,7.0,8.0,44,0.00,,,0.00,860.00,VWS V14.00,2013-04-21 18:37:00,
2013-04-21 14:42:00,42.0,22.7,30.58,SSE,159,2.0,7.0,46,0.00,,,0.00,854.00,VWS V14.00,2013-04-21 18:42:00,
2013-04-21 14:47:00,42.2,22.4,30.58,SE,129,3.0,8.0,45,0.00,,,0.00,844.00,VWS V14.00,2013-04-21 18:47:00,
2013-04-21 14:52:00,42.1,21.8,30.58,SE,141,5.0,13.0,44,0.00,,,0.00,837.00,VWS V14.00,2013-04-21 18:52:00,
2013-04-21 14:57:00,41.8,22.5,30.58,South,177,2.0,11.0,46,0.00,,,0.00,828.00,VWS V14.00,2013-04-21 18:57:00,
2013-04-21 15:02:00,41.6,21.9,30.58,SSE,147,11.0,11.0,45,0.00,,,0.00,819.00,VWS V14.00,2013-04-21 19:02:00,
2013-04-21 15:07:00,41.8,21.5,30.58,East,96,8.0,13.0,44,0.00,,,0.00,809.00,VWS V14.00,2013-04-21 19:07:00,
2013-04-21 15:12:00,41.8,21.5,30.58,SSE,148,3.0,9.0,44,0.00,,,0.00,796.00,VWS V14.00,2013-04-21 19:12:00,
2013-04-21 15:17:00,42.3,23.0,30.58,East,89,2.0,8.0,46,0.00,,,0.00,788.00,VWS V14.00,2013-04-21 19:17:00,
2013-04-21 15:22:00,42.5,21.0,30.58,East,95,2.0,8.0,42,0.00,,,0.00,779.00,VWS V14.00,2013-04-21 19:22:00,
2013-04-21 15:27:00,42.7,21.8,30.58,ENE,57,8.0,13.0,43,0.00,,,0.00,766.00,VWS V14.00,2013-04-21 19:27:00,
2013-04-21 15:32:00,42.7,21.8,30.58,ESE,121,4.0,10.0,43,0.00,,,0.00,756.00,VWS V14.00,2013-04-21 19:32:00,
2013-04-21 15:37:00,42.5,21.0,30.58,East,91,6.0,10.0,42,0.00,,,0.00,747.00,VWS V14.00,2013-04-21 19:37:00,
2013-04-21 15:42:00,42.6,21.1,30.58,ENE,58,5.0,10.0,42,0.00,,,0.00,733.00,VWS V14.00,2013-04-21 19:42:00,
2013-04-21 15:47:00,42.5,22.1,30.58,SE,138,1.0,4.0,44,0.00,,,0.00,722.00,VWS V14.00,2013-04-21 19:47:00,
2013-04-21 15:52:00,42.8,20.8,30.58,NE,46,5.0,9.0,41,0.00,,,0.00,708.00,VWS V14.00,2013-04-21 19:52:00,
2013-04-21 15:57:00,42.7,20.1,30.58,NE,47,4.0,8.0,40,0.00,,,0.00,696.00,VWS V14.00,2013-04-21 19:57:00,
2013-04-21 16:02:00,42.6,20.6,30.58,NE,40,3.0,8.0,41,0.00,,,0.00,680.00,VWS V14.00,2013-04-21 20:02:00,
2013-04-21 16:07:00,42.8,20.8,30.58,NE,51,4.0,9.0,41,0.00,,,0.00,670.00,VWS V14.00,2013-04-21 20:07:00,
2013-04-21 16:12:00,42.8,20.8,30.58,SSE,147,2.0,8.0,41,0.00,,,0.00,656.00,VWS V14.00,2013-04-21 20:12:00,
2013-04-21 16:17:00,42.7,20.7,30.58,East,90,1.0,8.0,41,0.00,,,0.00,640.00,VWS V14.00,2013-04-21 20:17:00,
2013-04-21 16:22:00,42.8,21.3,30.58,East,92,5.0,5.0,42,0.00,,,0.00,628.00,VWS V14.00,2013-04-21 20:22:00,
2013-04-21 16:27:00,43.0,19.8,30.58,ESE,105,1.0,7.0,39,0.00,,,0.00,613.00,VWS V14.00,2013-04-21 20:27:00,
2013-04-21 16:32:00,42.8,20.2,30.58,SSE,167,2.0,9.0,40,0.00,,,0.00,599.00,VWS V14.00,2013-04-21 20:32:00,
2013-04-21 16:37:00,42.7,20.1,30.58,SE,144,7.0,9.0,40,0.00,,,0.00,584.00,VWS V14.00,2013-04-21 20:37:00,
2013-04-21 16:42:00,42.7,20.1,30.58,SSE,147,10.0,14.0,40,0.00,,,0.00,571.00,VWS V14.00,2013-04-21 20:42:00,
2013-04-21 16:47:00,42.7,20.7,30.58,SE,134,4.0,13.0,41,0.00,,,0.00,554.00,VWS V14.00,2013-04-21 20:47:00,
2013-04-21 16:52:00,42.5,19.3,30.58,SSE,148,6.0,10.0,39,0.00,,,0.00,540.00,VWS V14.00,2013-04-21 20:52:00,
2013-04-21 16:57:00,42.3,19.7,30.58,SSE,150,8.0,9.0,40,0.00,,,0.00,524.00,VWS V14.00,2013-04-21 20:57:00,
2013-04-21 17:02:00,42.3,19.7,30.58,ESE,123,3.0,8.0,40,0.00,,,0.00,506.00,VWS V14.00,2013-04-21 21:02:00,
2013-04-21 17:07:00,42.4,20.4,30.58,ESE,111,4.0,9.0,41,0.00,,,0.00,490.00,VWS V14.00,2013-04-21 21:07:00,
2013-04-21 17:12:00,42.3,18.5,30.58,East,88,6.0,10.0,38,0.00,,,0.00,473.00,VWS V14.00,2013-04-21 21:12:00,
2013-04-21 17:17:00,42.4,19.8,30.59,NE,49,1.0,5.0,40,0.00,,,0.00,457.00,VWS V14.00,2013-04-21 21:17:00,
2013-04-21 17:22:00,42.5,19.9,30.59,East,87,5.0,6.0,40,0.00,,,0.00,441.00,VWS V14.00,2013-04-21 21:22:00,
2013-04-21 17:27:00,42.4,19.8,30.59,South,172,2.0,7.0,40,0.00,,,0.00,425.00,VWS V14.00,2013-04-21 21:27:00,
2013-04-21 17:32:00,42.2,19.0,30.59,SE,130,2.0,10.0,39,0.00,,,0.00,410.00,VWS V14.00,2013-04-21 21:32:00,
2013-04-21 17:37:00,42.0,18.9,30.59,ESE,115,0.0,5.0,39,0.00,,,0.00,392.00,VWS V14.00,2013-04-21 21:37:00,
2013-04-21 17:42:00,41.9,18.8,30.59,East,99,6.0,13.0,39,0.00,,,0.00,374.00,VWS V14.00,2013-04-21 21:42:00,
2013-04-21 17:48:00,41.8,18.7,30.59,ENE,74,7.0,9.0,39,0.00,,,0.00,357.00,VWS V14.00,2013-04-21 21:48:00,
2013-04-21 17:53:00,41.8,18.7,30.59,ENE,76,9.0,10.0,39,0.00,,,0.00,339.00,VWS V14.00,2013-04-21 21:53:00,
2013-04-21 17:58:00,41.8,19.3,30.59,NE,36,10.0,10.0,40,0.00,,,0.00,322.00,VWS V14.00,2013-04-21 21:58:00,
2013-04-21 18:03:00,41.7,18.6,30.59,East,97,1.0,7.0,39,0.00,,,0.00,304.00,VWS V14.00,2013-04-21 22:03:00,
2013-04-21 18:08:00,41.7,18.0,30.59,ESE,114,3.0,9.0,38,0.00,,,0.00,290.00,VWS V14.00,2013-04-21 22:08:00,
2013-04-21 18:13:00,41.6,18.5,30.59,NE,49,1.0,4.0,39,0.00,,,0.00,272.00,VWS V14.00,2013-04-21 22:13:00,
2013-04-21 18:18:00,41.6,18.5,30.59,NE,41,4.0,6.0,39,0.00,,,0.00,253.00,VWS V14.00,2013-04-21 22:18:00,
2013-04-21 18:23:00,41.6,17.9,30.59,North,5,6.0,8.0,38,0.00,,,0.00,234.00,VWS V14.00,2013-04-21 22:23:00,
2013-04-21 18:28:00,41.6,17.9,30.59,NE,46,3.0,6.0,38,0.00,,,0.00,211.00,VWS V14.00,2013-04-21 22:28:00,
2013-04-21 18:33:00,41.6,18.5,30.59,NE,52,1.0,5.0,39,0.00,,,0.00,195.00,VWS V14.00,2013-04-21 22:33:00,
2013-04-21 18:38:00,41.2,17.5,30.60,NE,51,3.0,6.0,38,0.00,,,0.00,77.00,VWS V14.00,2013-04-21 22:38:00,
2013-04-21 18:43:00,40.9,17.9,30.60,ESE,107,4.0,4.0,39,0.00,,,0.00,39.00,VWS V14.00,2013-04-21 22:43:00,
2013-04-21 18:48:00,40.6,17.6,30.60,ENE,70,0.0,2.0,39,0.00,,,0.00,37.00,VWS V14.00,2013-04-21 22:48:00,
2013-04-21 18:53:00,40.5,17.5,30.60,NE,49,2.0,5.0,39,0.00,,,0.00,35.00,VWS V14.00,2013-04-21 22:53:00,
2013-04-21 18:58:00,40.3,17.9,30.60,ENE,67,0.0,1.0,40,0.00,,,0.00,33.00,VWS V14.00,2013-04-21 22:58:00,
2013-04-21 19:03:00,40.1,17.7,30.61,East,84,0.0,3.0,40,0.00,,,0.00,32.00,VWS V14.00,2013-04-21 23:03:00,
2013-04-21 19:08:00,39.9,17.5,30.61,East,92,0.0,3.0,40,0.00,,,0.00,28.00,VWS V14.00,2013-04-21 23:08:00,
2013-04-21 19:13:00,39.7,17.4,30.61,East,87,0.0,3.0,40,0.00,,,0.00,26.00,VWS V14.00,2013-04-21 23:13:00,
2013-04-21 19:18:00,39.5,17.2,30.61,East,87,0.0,1.0,40,0.00,,,0.00,39.00,VWS V14.00,2013-04-21 23:18:00,
2013-04-21 19:23:00,39.4,17.7,30.61,NE,46,3.0,5.0,41,0.00,,,0.00,19.00,VWS V14.00,2013-04-21 23:23:00,
2013-04-21 19:28:00,39.2,17.5,30.61,NE,50,3.0,3.0,41,0.00,,,0.00,16.00,VWS V14.00,2013-04-21 23:28:00,
2013-04-21 19:33:00,39.0,17.9,30.61,NE,38,0.0,5.0,42,0.00,,,0.00,12.00,VWS V14.00,2013-04-21 23:33:00,
2013-04-21 19:38:00,38.8,17.7,30.62,NNE,33,1.0,3.0,42,0.00,,,0.00,11.00,VWS V14.00,2013-04-21 23:38:00,
2013-04-21 19:43:00,38.6,18.6,30.62,North,360,3.0,3.0,44,0.00,,,0.00,7.00,VWS V14.00,2013-04-21 23:43:00,
2013-04-21 19:48:00,38.2,18.2,30.62,North,5,2.0,4.0,44,0.00,,,0.00,5.00,VWS V14.00,2013-04-21 23:48:00,
2013-04-21 19:53:00,37.8,17.9,30.63,North,5,2.0,3.0,44,0.00,,,0.00,0.00,VWS V14.00,2013-04-21 23:53:00,
2013-04-21 19:58:00,37.5,17.6,30.63,North,9,2.0,3.0,44,0.00,,,0.00,0.00,VWS V14.00,2013-04-21 23:58:00,
2013-04-21 20:03:00,37.2,17.3,30.63,North,9,1.0,3.0,44,0.00,,,0.00,0.00,VWS V14.00,2013-04-22 00:03:00,
2013-04-21 20:08:00,36.9,17.6,30.63,North,9,0.0,2.0,45,0.00,,,0.00,0.00,VWS V14.00,2013-04-22 00:08:00,
2013-04-21 20:13:00,36.6,17.3,30.63,NNE,15,2.0,2.0,45,0.00,,,0.00,0.00,VWS V14.00,2013-04-22 00:13:00,
2013-04-21 20:18:00,36.2,17.4,30.63,North,360,2.0,3.0,46,0.00,,,0.00,0.00,VWS V14.00,2013-04-22 00:18:00,
2013-04-21 20:23:00,36.0,17.2,30.64,North,355,0.0,3.0,46,0.00,,,0.00,0.00,VWS V14.00,2013-04-22 00:23:00,
2013-04-21 20:28:00,35.7,18.0,30.64,North,355,0.0,1.0,48,0.00,,,0.00,0.00,VWS V14.00,2013-04-22 00:28:00,
2013-04-21 20:33:00,35.4,17.7,30.64,North,355,2.0,3.0,48,0.00,,,0.00,0.00,VWS V14.00,2013-04-22 00:33:00,
2013-04-21 20:38:00,35.1,18.4,30.64,North,355,0.0,0.0,50,0.00,,,0.00,0.00,VWS V14.00,2013-04-22 00:38:00,
2013-04-21 20:43:00,34.7,18.4,30.64,NNW,345,2.0,3.0,51,0.00,,,0.00,0.00,VWS V14.00,2013-04-22 00:43:00,
2013-04-21 20:48:00,34.2,18.4,30.64,NW,326,2.0,5.0,52,0.00,,,0.00,0.00,VWS V14.00,2013-04-22 00:48:00,
2013-04-21 20:53:00,33.8,18.0,30.65,NW,315,4.0,4.0,52,0.00,,,0.00,0.00,VWS V14.00,2013-04-22 00:53:00,
2013-04-21 20:58:00,33.6,18.3,30.65,NW,313,3.0,4.0,53,0.00,,,0.00,0.00,VWS V14.00,2013-04-22 00:58:00,
2013-04-21 21:03:00,33.4,18.1,30.65,NW,313,2.0,5.0,53,0.00,,,0.00,0.00,VWS V14.00,2013-04-22 01:03:00,
2013-04-21 21:08:00,33.3,18.0,30.65,NW,313,3.0,5.0,53,0.00,,,0.00,0.00,VWS V14.00,2013-04-22 01:08:00,
2013-04-21 21:13:00,33.2,17.9,30.65,NW,313,0.0,4.0,53,0.00,,,0.00,0.00,VWS V14.00,2013-04-22 01:13:00,
2013-04-21 21:18:00,33.1,17.8,30.65,NW,313,2.0,4.0,53,0.00,,,0.00,0.00,VWS V14.00,2013-04-22 01:18:00,
2013-04-21 21:23:00,33.0,18.2,30.65,NW,313,1.0,4.0,54,0.00,,,0.00,0.00,VWS V14.00,2013-04-22 01:23:00,
2013-04-21 21:29:00,32.9,18.1,30.65,NW,313,3.0,3.0,54,0.00,,,0.00,0.00,VWS V14.00,2013-04-22 01:29:00,
2013-04-21 21:34:00,32.7,18.3,30.65,NW,313,2.0,4.0,55,0.00,,,0.00,0.00,VWS V14.00,2013-04-22 01:34:00,
2013-04-21 21:39:00,32.6,18.2,30.65,NW,313,2.0,3.0,55,0.00,,,0.00,0.00,VWS V14.00,2013-04-22 01:39:00,
2013-04-21 21:44:00,32.4,18.0,30.65,NW,313,1.0,3.0,55,0.00,,,0.00,0.00,VWS V14.00,2013-04-22 01:44:00,
2013-04-21 21:49:00,32.3,18.4,30.66,NW,313,1.0,4.0,56,0.00,,,0.00,0.00,VWS V14.00,2013-04-22 01:49:00,
2013-04-21 21:54:00,32.1,18.2,30.66,NW,313,3.0,4.0,56,0.00,,,0.00,0.00,VWS V14.00,2013-04-22 01:54:00,
2013-04-21 21:59:00,32.0,18.1,30.66,NW,313,1.0,5.0,56,0.00,,,0.00,0.00,VWS V14.00,2013-04-22 01:59:00,
2013-04-21 22:04:00,31.9,18.0,30.66,NW,313,3.0,5.0,56,0.00,,,0.00,0.00,VWS V14.00,2013-04-22 02:04:00,
2013-04-21 22:09:00,31.9,18.0,30.66,NW,313,3.0,5.0,56,0.00,,,0.00,0.00,VWS V14.00,2013-04-22 02:09:00,
2013-04-21 22:14:00,32.0,17.7,30.66,NW,313,2.0,5.0,55,0.00,,,0.00,0.00,VWS V14.00,2013-04-22 02:14:00,
2013-04-21 22:19:00,32.0,17.7,30.66,NW,313,2.0,5.0,55,0.00,,,0.00,0.00,VWS V14.00,2013-04-22 02:19:00,
2013-04-21 22:24:00,32.1,17.8,30.66,NW,313,1.0,4.0,55,0.00,,,0.00,0.00,VWS V14.00,2013-04-22 02:24:00,
2013-04-21 22:29:00,32.2,17.9,30.66,NW,313,5.0,6.0,55,0.00,,,0.00,0.00,VWS V14.00,2013-04-22 02:29:00,
2013-04-21 22:34:00,32.2,18.3,30.66,NW,319,5.0,6.0,56,0.00,,,0.00,0.00,VWS V14.00,2013-04-22 02:34:00,
2013-04-21 22:39:00,32.2,18.3,30.66,NW,321,4.0,6.0,56,0.00,,,0.00,0.00,VWS V14.00,2013-04-22 02:39:00,
2013-04-21 22:44:00,32.1,17.8,30.66,NW,321,4.0,5.0,55,0.00,,,0.00,0.00,VWS V14.00,2013-04-22 02:44:00,
2013-04-21 22:49:00,32.1,18.2,30.66,NW,321,4.0,5.0,56,0.00,,,0.00,0.00,VWS V14.00,2013-04-22 02:49:00,
2013-04-21 22:54:00,32.1,18.2,30.66,NW,317,0.0,4.0,56,0.00,,,0.00,0.00,VWS V14.00,2013-04-22 02:54:00,
2013-04-21 22:59:00,32.0,18.1,30.66,NW,316,2.0,5.0,56,0.00,,,0.00,0.00,VWS V14.00,2013-04-22 02:59:00,
2013-04-21 23:04:00,32.0,17.7,30.66,NW,316,2.0,5.0,55,0.00,,,0.00,0.00,VWS V14.00,2013-04-22 03:04:00,
2013-04-21 23:09:00,32.0,18.1,30.66,NW,316,3.0,4.0,56,0.00,,,0.00,0.00,VWS V14.00,2013-04-22 03:09:00,
2013-04-21 23:14:00,32.0,18.1,30.66,NW,317,5.0,6.0,56,0.00,,,0.00,0.00,VWS V14.00,2013-04-22 03:14:00,
2013-04-21 23:19:00,32.0,18.1,30.66,NW,317,2.0,5.0,56,0.00,,,0.00,0.00,VWS V14.00,2013-04-22 03:19:00,
2013-04-21 23:24:00,31.8,18.3,30.66,NW,317,3.0,7.0,57,0.00,,,0.00,0.00,VWS V14.00,2013-04-22 03:24:00,
2013-04-21 23:29:00,31.6,18.5,30.66,NW,317,4.0,5.0,58,0.00,,,0.00,0.00,VWS V14.00,2013-04-22 03:29:00,
2013-04-21 23:34:00,31.4,18.7,30.66,NW,317,3.0,4.0,59,0.00,,,0.00,0.00,VWS V14.00,2013-04-22 03:34:00,
2013-04-21 23:39:00,31.2,18.5,30.66,NW,318,4.0,6.0,59,0.00,,,0.00,0.00,VWS V14.00,2013-04-22 03:39:00,
2013-04-21 23:44:00,31.2,18.5,30.66,NW,318,4.0,5.0,59,0.00,,,0.00,0.00,VWS V14.00,2013-04-22 03:44:00,
2013-04-21 23:49:00,31.1,18.9,30.66,NW,315,3.0,5.0,60,0.00,,,0.00,0.00,VWS V14.00,2013-04-22 03:49:00,
2013-04-21 23:54:00,31.0,18.4,30.66,NW,315,2.0,4.0,59,0.00,,,0.00,0.00,VWS V14.00,2013-04-22 03:54:00,
2013-04-21 23:59:00,31.1,18.5,30.66,NW,315,5.0,5.0,59,0.00,,,0.00,0.00,VWS V14.00,2013-04-22 03:59:00,